Location: Unnamed
(51.5169°N, 0.1311°W)
Time: 05:47:49
(UTC+01:00)

Vanguard 1 - Pass Details

Date: 15 August 2024
Orbit: 649 x 3825 km, 34.2° (Epoch: 16 September)

Event Time Altitude Azimuth Distance (km) Brightness Sun altitude
Rises 03:05:13 0° 264° (W) 5,294 13.5 -19.5°
Reaches altitude 10° 03:08:44 10° 254° (WSW) 4,697 13.1 -19.3°
Maximum altitude 03:20:24 31° 199° (SSW) 4,303 12.7 -18.3°
Drops below altitude 10° 03:37:18 10° 148° (SSE) 6,785 14.1 -16.7°
Sets 03:43:55 0° 140° (SE) 7,947 14.6 -16.0°
